Location: Robert Ferguson Observatory
(38.4385°N, 122.5078°W)
Time: 22:06:38
(UTC-07:00)

Daily predictions for brighter satellites

Satellite Brightness Start Highest point End
(mag) Time Altitude Azimuth Time Altitude Azimuth Time Altitude Azimuth
FENGYUN 3A 3.9 20:57:48 10° S 21:03:12 77° WSW 21:08:39 10° NNW
S3M 4.5 20:57:35 10° N 21:03:22 42° ENE 21:09:07 10° SSE
CZ-2D R/B 4.2 21:02:11 10° S 21:05:58 51° W 21:09:46 10° NNW
H-2A R/B 3.3 21:04:08 10° S 21:07:58 62° W 21:11:47 10° NNW
Resurs 01 Rocket 4.3 21:05:56 10° SW 21:08:51 17° W 21:11:47 10° NW
deb Kosmos-1763 4.2 21:09:32 10° S 21:13:21 65° ESE 21:17:14 10° NNE
Cosmos 1743 Rocket 3.9 21:09:31 10° SSE 21:13:50 49° E 21:18:09 10° NNE
GPS 2-04 Rocket1 3.3 21:11:09 10° W 21:15:23 48° SSW 21:19:31 10° ESE
SJ-11-01 4.3 21:11:54 10° SSE 21:16:34 70° ENE 21:21:18 10° N
deb Chang Zheng 4 3.6 21:15:52 10° NNE 21:20:10 63° ESE 21:24:27 10° S
Cosmos 1500 Rocket 4.1 21:16:56 10° SSE 21:20:58 39° E 21:25:04 10° NNE
Cosmos 2360 4.4 21:16:17 10° NNW 21:22:01 78° WSW 21:27:43 10° SSE
Cosmos 540 Rocket 3.8 21:19:35 10° NNW 21:24:45 70° WSW 21:29:52 10° S
Cosmos 2221 3.9 21:21:48 10° NNW 21:25:47 39° W 21:29:47 10° SSW
Cosmos 1378 3.9 21:22:58 10° SSW 21:26:38 54° W 21:30:20 10° N
AVUM R/B 4.5 21:30:15 13° E 21:30:15 13° E 21:31:18 10° ENE
USA 229 DEB 3.8 21:26:41 10° SSW 21:33:23 56° ESE 21:40:11 10° NE
USA 229 3.8 21:26:48 10° SSW 21:33:30 56° ESE 21:40:17 10° NE
Delta 2 Rocket 4.1 21:33:04 10° SSW 21:35:52 23° SSE 21:37:41 15° ESE
ATLAS 5 CENTAUR R/B 4.0 21:32:56 10° WSW 21:37:16 31° NW 21:41:54 10° NNE
BREEZE M DEB (TANK) 3.0 21:36:10 10° W 21:37:50 23° SSW 21:39:43 13° SSE
CZ-4 SHROUD 3.9 21:35:58 15° SE 21:38:14 38° ENE 21:41:11 10° N
Cosmos 968 Rocket 3.5 21:33:19 10° SSW 21:38:29 89° WNW 21:43:44 10° NNE
USA 245 4.4 21:42:13 14° E 21:43:08 16° ENE 21:44:50 10° NNE
ATLAS CENTAUR R/B 1.9 21:40:03 10° NW 21:44:32 59° WSW 21:48:06 13° SSE
YAOGAN 6 3.6 21:43:08 16° SE 21:45:23 31° ENE 21:48:39 10° N
Terra 3.9 21:47:30 10° E 21:49:34 13° ENE 21:51:38 10° NE
Cosmos 1515 Rocket 3.5 21:45:18 10° N 21:49:46 80° E 21:53:42 13° S
DELTA 2 R/B (1) 3.7 21:44:52 10° W 21:50:27 80° N 21:56:00 10° E
Envisat 3.0 21:47:59 10° SSE 21:53:03 84° WSW 21:58:10 10° NNW
Cosmos 405 3.5 21:52:34 10° N 21:56:05 44° ENE 21:57:59 23° SE
Cosmos 1441 Rocket 3.5 21:54:02 10° SSW 21:57:48 66° W 22:01:34 10° N
ARGOS 3.8 21:56:07 18° SE 21:59:41 40° ENE 22:04:42 10° N
CZ-2C R/B 3.0 22:00:01 10° WSW 22:00:50 12° W 22:01:38 10° WNW
MetOp-A 4.1 21:57:11 16° SSE 22:01:30 74° ENE 22:06:51 10° N
Cosmos 2266 Rocket 4.0 21:55:57 10° S 22:02:16 76° E 22:08:31 10° N
Cosmos 2219 3.9 21:58:40 15° SSE 22:02:50 35° ESE 22:07:59 10° NE
Cosmos 1553 Rocket 4.5 21:57:35 10° NNW 22:03:55 63° W 22:10:08 10° S
ERS-1 Rocket 4.3 22:00:42 10° SSW 22:05:18 36° W 22:09:56 10° NNW
Cosmos 1939 Rocket 3.9 22:01:35 10° S 22:05:22 42° W 22:09:07 10° NNW
Cosmos 1777 Rocket 4.1 22:04:03 10° SSW 22:09:19 78° WNW 22:14:36 10° NNE
Cosmos 1437 2.9 22:08:46 30° SSE 22:10:05 51° E 22:13:18 10° NNE
Cosmos 2322 4.0 22:06:35 10° NNW 22:12:12 54° ENE 22:15:33 24° SE
H-2A R/B 3.3 22:12:25 19° ESE 22:15:02 28° ENE 22:19:35 10° N
Cosmos 1726 3.7 22:13:19 10° NNE 22:16:14 21° ENE 22:16:52 20° E
Meteor 2-20 Rocket 4.4 22:10:17 10° S 22:16:27 89° W 22:22:38 10° N
Cosmos 1805 Rocket 4.1 22:14:46 27° SE 22:16:42 42° E 22:20:54 10° NNE
Cosmos 1908 3.3 22:13:00 10° N 22:16:54 75° W 22:19:15 23° S
Cosmos 2151 2.8 22:14:56 19° S 22:17:53 78° E 22:22:06 10° N
SPOT 5 3.2 22:15:46 16° S 22:19:15 56° W 22:23:52 10° NNW
Cosmos 2322 Rocket 3.1 22:14:29 10° NW 22:19:47 44° WSW 22:24:17 14° S
Cosmos 1151 Rocket 3.1 22:19:16 10° N 22:23:34 74° W 22:26:10 23° S
SPOT 1/Viking Rocket 3.5 22:23:43 25° SSE 22:26:48 87° ENE 22:31:59 10° NNW
SL-16 R/B 3.2 22:23:09 10° NW 22:28:25 40° WSW 22:32:41 15° SSW
NOAA 11 4.2 22:27:46 27° SSE 22:30:46 74° ENE 22:36:13 10° N
Cosmos 2360 Rocket 2.2 22:25:46 10° NNW 22:31:27 80° ENE 22:34:21 30° SSE
H-2A R/B 4.3 22:29:24 10° SSW 22:32:55 22° W 22:36:28 10° NW
Cosmos 1707 Rocket 3.8 22:32:05 10° N 22:36:21 53° E 22:37:35 39° SE
Cosmos 1437 Rocket 4.2 22:33:25 10° NNW 22:36:51 32° W 22:39:13 17° SSW
Nadezhda 2 Rocket 4.4 22:32:17 15° S 22:37:30 86° W 22:43:39 10° N
Cosmos 1680 Rocket 3.4 22:32:52 10° NNW 22:38:08 86° ENE 22:40:30 34° SSE
Cosmos 1666 Rocket 3.7 22:37:19 40° SE 22:38:32 54° E 22:42:51 10° NNE
Cosmos 1674 4.2 22:36:13 10° SW 22:39:42 34° WNW 22:43:15 10° NNW
Cosmos 923 Rocket 4.2 22:35:50 10° NNW 22:41:00 68° WSW 22:43:34 30° S
NOSS 3-1 (C) 3.4 22:37:45 18° S 22:41:57 56° ESE 22:48:08 10° NE
CZ-4C R/B 2.9 22:46:07 61° ESE 22:46:30 69° ENE 22:49:58 10° N
Cosmos 2150 Rocket 4.3 22:45:49 36° SSE 22:47:30 49° ESE 22:52:46 10° NNE
Cosmos 1300 2.6 22:44:57 10° N 22:48:48 75° E 22:49:23 60° SE
DMSP B5D2-2 4.3 22:44:15 10° NNE 22:49:19 49° E 22:50:41 39° SE
Cosmos 1898 Rocket 3.6 22:50:22 41° SSE 22:51:41 51° ESE 22:56:42 10° NNE
Cosmos 1626 4.2 22:53:55 17° ENE 22:53:55 17° ENE 22:55:32 10° NE
Cosmos 2058 3.1 22:52:13 32° SSW 22:53:56 65° W 22:58:00 10° N
Cosmos 2227 Rocket 3.4 22:54:43 23° E 22:54:43 23° E 22:58:44 10° NE
SL-08 RB Rocket 3.8 22:52:50 39° S 22:54:24 69° WSW 22:58:53 10° NNW
Meteor 2-11 Rocket 4.4 22:50:43 10° N 22:56:54 85° E 22:59:37 36° S
Meteor 1-4 Rocket 3.2 22:53:47 10° N 22:57:18 41° ENE 22:57:18 41° ENE
Cosmos 2333 Rocket 3.7 22:54:10 10° N 22:58:55 26° ENE 23:01:13 20° E
DELTA 2 DEB (DPAF) 4.3 23:04:57 46° SSW 23:06:08 67° WSW 23:10:37 10° NNW
Cosmos 2242 Rocket 3.5 23:03:58 10° N 23:08:26 72° E 23:09:01 62° SE
COSMOS 2428 2.6 23:05:04 10° NNW 23:10:47 81° ENE 23:12:26 48° SSE
Landsat 7 3.9 23:09:32 46° SSW 23:10:50 68° WSW 23:15:36 10° NNW
Cosmos 1455 3.6 23:08:35 10° NNE 23:11:23 27° ENE 23:11:23 27° ENE
H-2A R/B 4.3 23:07:03 10° SW 23:12:10 44° SSE 23:44:15 10° E
IGS 5A 3.3 23:13:11 73° SE 23:13:31 82° ENE 23:17:42 10° N
Spot 4 3.8 23:15:50 58° SE 23:16:41 74° ENE 23:21:32 10° N
USA 32 4.0 23:12:50 10° N 23:18:08 86° W 23:19:30 51° S
Cosmos 2297 Rocket 3.3 23:22:46 27° E 23:22:46 27° E 23:26:48 10° NE
SeaSat 1 3.5 23:21:10 29° E 23:22:24 33° ENE 23:26:48 10° N
SL-14 R/B 4.4 23:24:33 33° WSW 23:25:28 39° WNW 23:29:13 10° N
Terra 1.9 23:25:53 56° SSW 23:26:42 67° WSW 23:31:28 10° NNW
Cosmos 1703 3.3 23:26:54 73° WNW 23:26:54 73° WNW 23:30:44 10° N
NOSS 0 Rocket 4.4 23:21:43 10° NNW 23:27:43 51° ENE 23:29:27 40° ESE
Cosmos 2237 4.4 23:26:46 10° NNW 23:32:26 63° WSW 23:33:44 49° SSW
Cosmos 292 Rocket 3.6 23:28:36 10° NNW 23:33:23 77° ENE 23:33:39 74° ESE
Cosmos 1862 Rocket 3.7 23:30:09 10° N 23:34:13 59° ENE 23:34:13 59° ENE
CARTOSAT-1 4.1 23:34:37 46° WSW 23:34:59 47° W 23:39:10 10° NNW
Cosmos 2219 Rocket 2.3 23:29:32 10° NNW 23:35:06 63° ENE 23:36:07 54° ESE
DELTA 2 R/B (1) 3.5 23:31:24 10° W 23:36:53 62° SSW 23:37:02 62° SSW
Cosmos 1271 Rocket 3.2 23:33:31 10° NNW 23:36:55 55° WNW 23:36:55 55° WNW
Cosmos 1633 Rocket 4.4 23:40:30 28° WSW 23:41:49 33° WNW 23:45:49 10° NNW
GEOS 3 Rocket 4.5 23:41:20 33° E 23:42:51 41° NE 23:47:43 10° NNW
NOSS 3-1 (A) 3.6 23:39:49 22° SW 23:43:43 69° NW 23:50:13 10° NNE
Cosmos 1980 3.9 23:41:30 10° NNW 23:47:05 57° ENE 23:47:57 51° E
BREEZE-M DEB (TANK) 4.1 23:49:05 10° NW 23:50:36 30° N 23:50:36 30° N
Cosmos 1726 4.2 23:48:36 10° NW 23:51:30 21° W 23:51:34 21° W
H-2A R/B 3.2 23:53:03 31° SW 23:54:16 34° W 23:59:10 10° NNW
